EW5897 Weather Reports


Display with metric or nautical units.
time (UTC)temp
F
wind
direction
speed
MPH
gust
MPH
rain 1hr
in
rain 24hr
in
rain mn
in
humidity
%
barometer
mb
20260506082900 22 263 2.0 4.0 0.00 0.00 0.00 87 1017.1
20260506080908 22 266 2.0 3.0 0.00 0.00 0.00 86 1017.1
20260506072911 24 277 3.0 4.0 0.00 0.00 0.00 82 1017.4
20260506070904 26 300 3.0 4.0 0.00 0.00 0.00 80 1017.3
20260506061904 29 305 2.0 4.0 0.00 0.00 0.00 78 1017.3
20260506043414 28 327 1.0 2.0 0.00 0.00 0.00 76 1017.4
20260506041905 28 327 2.0 4.0 0.00 0.00 0.00 75 1017.4
20260506035912 29 311 3.0 5.0 0.00 0.00 0.00 74 1017.6
20260506033413 30 318 2.0 5.0 0.00 0.00 0.00 72 1017.5
20260506031857 31 327 3.0 5.0 0.00 0.00 0.00 71 1017.4
20260506025909 32 338 3.0 6.0 0.00 0.00 0.00 69 1017.4
20260506024359 33 331 3.0 10.0 0.00 0.00 0.00 67 1017.2
20260506021905 34 339 6.0 12.0 0.00 0.00 0.00 65 1017.0
20260506015902 35 332 6.0 10.0 0.00 0.00 0.00 63 1016.8
20260506013902 36 342 8.0 14.0 0.00 0.00 0.00 59 1016.7
20260506011915 38 338 7.0 14.0 0.00 0.00 0.00 56 1016.5
20260506010407 38 333 10.0 16.0 0.00 0.00 0.00 56 1016.6
20260506004856 39 338 8.0 15.0 0.00 0.00 0.00 55 1016.4
20260506002908 39 345 10.0 17.0 0.00 0.00 0.00 55 1016.3
20260506001349 40 11 12.0 17.0 0.00 0.00 0.00 53 1016.3
20260505235414 39 304 11.0 18.0 0.00 0.00 0.00 55 1016.2
20260505233904 38 360 9.0 17.0 0.00 0.00 0.00 55 1016.3
20260505231913 40 330 10.0 17.0 0.00 0.00 0.00 53 1016.0
20260505230356 39 332 11.0 16.0 0.00 0.00 0.00 54 1016.1
20260505224854 40 320 10.0 23.0 0.00 0.00 0.00 53 1016.2
20260505222916 39 335 12.0 19.0 0.00 0.00 0.00 53 1016.3
20260505221409 39 343 12.0 18.0 0.00 0.00 0.00 52 1016.1
20260505215404 38 304 8.0 17.0 0.00 0.00 0.00 54 1016.2
20260505213404 38 306 10.0 17.0 0.00 0.00 0.00 55 1016.2
20260505211902 38 342 12.0 18.0 0.00 0.00 0.00 53 1016.2
20260505205906 37 355 10.0 17.0 0.00 0.00 0.00 54 1016.2
20260505204403 37 5 10.0 18.0 0.00 0.00 0.00 55 1016.3
20260505202412 37 355 9.0 18.0 0.00 0.00 0.00 56 1016.1
20260505200901 36 355 9.0 18.0 0.00 0.00 0.00 57 1016.2
20260505195357 36 348 10.0 19.0 0.00 0.00 0.00 55 1016.1
20260505193849 36 311 13.0 20.0 0.00 0.00 0.00 56 1016.2
20260505191903 36 313 12.0 19.0 0.00 0.00 0.00 55 1015.9
20260505185904 36 325 12.0 21.0 0.00 0.00 0.00 54 1015.7
20260505183914 36 302 14.0 22.0 0.00 0.00 0.00 53 1015.8
20260505181906 35 342 13.0 20.0 0.00 0.00 0.00 55 1015.8
20260505175907 35 334 14.0 20.0 0.00 0.00 0.00 58 1015.5
20260505174405 34 317 15.0 19.0 0.00 0.00 0.00 57 1015.4
20260505172901 34 328 12.0 21.0 0.00 0.00 0.00 57 1015.6
20260505171353 34 330 15.0 21.0 0.00 0.00 0.00 56 1015.5
20260505165354 33 314 13.0 21.0 0.00 0.00 0.00 59 1015.4
20260505163415 33 322 14.0 20.0 0.00 0.00 0.00 56 1015.4
20260505161411 33 336 13.0 19.0 0.00 0.00 0.00 57 1015.3
20260505152354 32 355 11.0 17.0 0.00 0.00 0.00 61 1015.3
20260505150413 31 327 14.0 21.0 0.00 0.00 0.00 60 1015.1
20260505124909 28 318 8.0 14.0 0.00 0.00 0.00 70 1014.2
20260505123404 28 327 6.0 14.0 0.00 0.00 0.00 70 1014.0
20260505121409 27 309 8.0 13.0 0.00 0.00 0.00 70 1013.8
20260505115410 27 317 5.0 10.0 0.00 0.00 0.00 72 1013.5
20260505113858 26 300 3.0 9.0 0.00 0.00 0.00 74 1013.3
20260505111854 26 323 5.0 10.0 0.00 0.00 0.00 72 1013.2
20260505100910 26 287 4.0 8.0 0.00 0.00 0.00 79 1012.8
20260505094912 26 281 5.0 8.0 0.00 0.00 0.00 79 1012.7
20260505093353 26 273 6.0 8.0 0.00 0.00 0.00 80 1012.5
20260505091403 25 296 3.0 5.0 0.00 0.00 0.00 82 1012.3
20260505085856 25 282 3.0 5.0 0.00 0.00 0.00 80 1012.3